Time,TemperatureF,DewpointF,PressureIn,WindDirection,WindDirectionDegrees,WindSpeedMPH,WindSpeedGustMPH,Humidity,HourlyPrecipIn,Conditions,Clouds,dailyrainin,SoftwareType,DateUTC
2013-01-31 00:00:00,62.2,59.2,24.17,South,180,7.0,19.0,90,0.00,,,0.00,VWS V13.01,2013-01-31 05:00:00,
2013-01-31 01:00:00,61.3,59.6,24.17,South,180,6.0,16.0,94,0.00,,,0.01,VWS V13.01,2013-01-31 06:00:00,
2013-01-31 02:00:00,61.1,59.1,24.17,South,180,8.0,21.0,93,0.00,,,0.01,VWS V13.01,2013-01-31 07:00:00,
2013-01-31 03:00:00,61.7,59.7,24.17,South,180,10.0,24.0,93,0.00,,,0.01,VWS V13.01,2013-01-31 08:00:00,
2013-01-31 04:00:00,61.5,59.2,24.17,South,180,10.0,27.0,92,0.00,,,0.01,VWS V13.01,2013-01-31 09:00:00,
2013-01-31 05:00:00,59.5,57.2,24.17,SW,225,7.0,22.0,92,0.00,,,0.01,VWS V13.01,2013-01-31 10:00:00,
2013-01-31 06:00:00,57.7,55.7,24.17,SSW,202,5.0,15.0,93,0.00,,,0.02,VWS V13.01,2013-01-31 11:00:00,
2013-01-31 07:00:00,53.5,45.1,24.17,WSW,248,10.0,38.0,73,0.00,,,0.03,VWS V13.01,2013-01-31 12:00:00,
2013-01-31 08:00:00,47.0,35.5,24.17,WSW,248,10.0,34.0,64,0.00,,,0.03,VWS V13.01,2013-01-31 13:00:00,
2013-01-31 09:00:00,45.5,33.2,24.17,WSW,248,10.0,32.0,62,0.00,,,0.03,VWS V13.01,2013-01-31 14:00:00,
2013-01-31 10:00:00,44.1,29.4,24.17,WSW,248,11.0,37.0,56,0.00,,,0.03,VWS V13.01,2013-01-31 15:00:00,
2013-01-31 11:00:00,44.3,27.3,24.17,WSW,248,9.0,31.0,51,0.00,,,0.03,VWS V13.01,2013-01-31 16:00:00,
2013-01-31 12:00:00,44.3,25.4,24.17,WSW,248,10.0,31.0,47,0.00,,,0.03,VWS V13.01,2013-01-31 17:00:00,
2013-01-31 13:00:00,44.3,25.4,24.17,WSW,248,10.0,32.0,47,0.00,,,0.03,VWS V13.01,2013-01-31 18:00:00,
2013-01-31 14:00:00,42.7,24.4,24.28,WSW,248,11.0,27.0,48,0.00,,,0.03,VWS V13.01,2013-01-31 19:00:00,
2013-01-31 15:00:00,42.6,21.7,24.35,WSW,248,10.0,30.0,43,0.00,,,0.03,VWS V13.01,2013-01-31 20:00:00,
2013-01-31 16:00:00,41.4,23.2,21.36,WSW,248,7.0,34.0,48,0.00,,,0.03,VWS V13.01,2013-01-31 21:00:00,
2013-01-31 17:00:00,38.6,26.7,20.83,WSW,248,9.0,31.0,62,0.00,,,0.03,VWS V13.01,2013-01-31 22:00:00,
2013-01-31 18:00:00,35.3,19.5,23.83,West,270,8.0,28.0,52,0.00,,,0.03,VWS V13.01,2013-01-31 23:00:00,
2013-01-31 19:00:00,34.4,18.2,23.57,WSW,248,8.0,27.0,51,0.00,,,0.03,VWS V13.01,2013-02-01 00:00:00,
2013-01-31 20:00:00,33.3,20.5,24.28,WSW,248,5.0,21.0,59,0.00,,,0.03,VWS V13.01,2013-02-01 01:00:00,
2013-01-31 21:00:00,30.8,22.2,24.35,WSW,248,6.0,27.0,70,0.00,,,0.03,VWS V13.01,2013-02-01 02:00:00,
2013-01-31 22:00:00,30.6,14.6,22.65,WSW,248,8.0,31.0,51,0.00,,,0.03,VWS V13.01,2013-02-01 03:00:00,
2013-01-31 23:00:00,30.1,13.7,22.65,WSW,248,8.0,26.0,50,0.00,,,0.03,VWS V13.01,2013-02-01 04:00:00,